Location: Foligno
(42.9600°N, 12.7050°E)
Time: 09:57:09
(UTC+02:00)

ISS - Pass Details

Date: 15 July 2018
Orbit: 402 x 408 km, 51.6° (Epoch: 19 July)

Event Time Altitude Azimuth Distance (km) Brightness Sun altitude
Exits shadow 03:22:28 - 297° (WNW) 2,029 -0.3 -19.1°
Reaches altitude 10° 03:24:11 10° 312° (NW) 1,470 -0.9 -19.0°
Maximum altitude 03:26:32 18° 358° (N) 1,090 -1.0 -18.8°
Drops below altitude 10° 03:28:52 10° 43° (NE) 1,472 0.2 -18.5°
Sets 03:31:26 0° 64° (ENE) 2,334 1.1 -18.3°
